Minchumina, AK

12:53 PM AKST on November 21, 2017 (GMT -0900)
Minchumina

Weather History for PAMH - July, 2013

Change the Weather History Date:

Friday, July 19, 2013

  Actual Average Record
Temperature  
Mean Temperature 58 °F -  
Max Temperature 62 °F 64 °F 77 °F (2003)
Min Temperature 53 °F 50 °F 41 °F (2011)
Degree Days  
Heating Degree Days 6    
Growing Degree Days 8 (Base 50)    
Moisture  
Dew Point 52 °F    
Average Humidity 85    
Maximum Humidity 94    
Minimum Humidity 68    
Precipitation  
Precipitation 0.08 in - - ()
Sea Level Pressure  
Sea Level Pressure 30.14 in    
Wind  
Wind Speed 5 mph (SW)    
Max Wind Speed 13 mph    
Max Gust Speed 21 mph    
Visibility 10 miles    
Events      
Averages and records for this station are not official NWS values.
T = Trace of Precipitation, MM = Missing Value Source: NWS Daily Summary

Daily Weather History Graph

Daily Weather History Graph

Search for Another Location

Airport or City:

Trip Planner

Search our weather history database for the weather conditions in past years. The results will help you decide how hot, cold, wet, or windy it might be!

Date:

Astronomy

Jul. 19, 2013 Rise Set
Actual Time 4:39 AM AKDT 11:48 PM AKDT
Civil Twilight 2:47 AM AKDT 1:43 AM AKDT
Nautical Twilight Sun does not rise Sun does not rise
Astronomical Twilight Sun does not rise Sun does not rise
Moon 8:55 PM AKDT (7/19) 1:43 AM AKDT (7/19)
Length of Visible Light 22h 55m
Length of Day
19h 09m
Waxing Gibbous, 88% of the Moon is Illuminated
Jul 19
Waxing Gibbous
Jul 22
Full
Jul 29
Last Quarter
Aug 6
New
Aug 14
First Quarter

Hourly Weather History & Observations

Time (AKDT) Temp. Dew Point Humidity Pressure Visibility Wind Dir Wind Speed Gust Speed Precip Events Conditions
12:16 AM 57.2 °F 53.6 °F 88% 30.06 in 10.0 mi Calm Calm - N/A   Mostly Cloudy
12:36 AM 55.4 °F 53.6 °F 94% 30.06 in 10.0 mi Calm Calm - N/A   Scattered Clouds
12:56 AM 55.4 °F 53.6 °F 94% 30.07 in 10.0 mi Calm Calm - N/A   Overcast
1:16 AM 57.2 °F 53.6 °F 88% 30.07 in 10.0 mi Calm Calm - N/A   Mostly Cloudy
1:36 AM 55.4 °F 53.6 °F 94% 30.08 in 10.0 mi Calm Calm - N/A   Mostly Cloudy
1:56 AM 57.2 °F 53.6 °F 88% 30.08 in 10.0 mi Calm Calm - N/A   Overcast
2:16 AM 55.4 °F 53.6 °F 94% 30.08 in 10.0 mi Calm Calm - N/A   Overcast
2:36 AM 57.2 °F 55.4 °F 94% 30.08 in 10.0 mi Calm Calm - N/A   Overcast
2:56 AM 57.2 °F 53.6 °F 88% 30.08 in 10.0 mi Calm Calm - N/A   Overcast
3:16 AM 57.2 °F 55.4 °F 94% 30.08 in 10.0 mi Calm Calm - N/A   Overcast
3:36 AM 57.2 °F 55.4 °F 94% 30.08 in 10.0 mi Calm Calm - N/A   Overcast
3:56 AM 57.2 °F 55.4 °F 94% 30.08 in 10.0 mi SW 3.5 mph - N/A   Overcast
4:16 AM 57.2 °F 53.6 °F 88% 30.08 in 10.0 mi SSW 8.1 mph - N/A   Overcast
4:36 AM 57.2 °F 53.6 °F 88% 30.09 in 10.0 mi SSW 6.9 mph - N/A   Overcast
4:56 AM 55.4 °F 53.6 °F 94% 30.09 in 10.0 mi SSW 6.9 mph - N/A   Overcast
5:16 AM 55.4 °F 53.6 °F 94% 30.09 in 9.0 mi SSW 6.9 mph - N/A   Overcast
5:36 AM 55.4 °F 53.6 °F 94% 30.10 in 9.0 mi SSW 9.2 mph - N/A   Overcast
5:56 AM 55.4 °F 51.8 °F 88% 30.10 in 2.5 mi SW 6.9 mph - N/A   Overcast
6:16 AM 55.4 °F 53.6 °F 94% 30.10 in 10.0 mi SW 6.9 mph - N/A   Overcast
6:36 AM 55.4 °F 51.8 °F 88% 30.11 in 10.0 mi SW 4.6 mph - N/A   Overcast
6:56 AM 55.4 °F 51.8 °F 88% 30.11 in 10.0 mi SSW 4.6 mph - N/A   Overcast
7:16 AM 55.4 °F 51.8 °F 88% 30.11 in 10.0 mi SSW 5.8 mph - N/A   Overcast
7:36 AM 55.4 °F 51.8 °F 88% 30.11 in 10.0 mi SSW 4.6 mph - N/A   Overcast
7:56 AM 55.4 °F 51.8 °F 88% 30.11 in 10.0 mi SSW 9.2 mph - N/A   Overcast
8:16 AM 55.4 °F 51.8 °F 88% 30.12 in 10.0 mi SSW 5.8 mph - N/A   Overcast
8:36 AM 55.4 °F 51.8 °F 88% 30.12 in 10.0 mi SSW 6.9 mph - N/A   Overcast
8:56 AM 55.4 °F 51.8 °F 88% 30.12 in 10.0 mi SSW 10.4 mph - N/A   Overcast
9:16 AM 55.4 °F 51.8 °F 88% 30.13 in 10.0 mi SSW 11.5 mph 17.3 mph N/A   Overcast
9:36 AM 55.4 °F 51.8 °F 88% 30.13 in 10.0 mi SSW 10.4 mph 20.7 mph N/A   Overcast
9:56 AM 55.4 °F 51.8 °F 88% 30.13 in 10.0 mi SSW 10.4 mph 17.3 mph N/A   Overcast
10:16 AM 55.4 °F 51.8 °F 88% 30.14 in 10.0 mi SSW 11.5 mph 18.4 mph N/A   Overcast
10:36 AM 55.4 °F 51.8 °F 88% 30.14 in 10.0 mi SSW 9.2 mph - N/A   Overcast
10:56 AM 55.4 °F 51.8 °F 88% 30.15 in 10.0 mi SSW 9.2 mph 17.3 mph N/A   Overcast
11:16 AM 55.4 °F 51.8 °F 88% 30.15 in 10.0 mi SSW 10.4 mph 17.3 mph N/A   Overcast
11:36 AM 55.4 °F 51.8 °F 88% 30.15 in 10.0 mi SSW 11.5 mph 18.4 mph N/A   Overcast
11:56 AM 57.2 °F 51.8 °F 82% 30.16 in 10.0 mi SSW 11.5 mph 18.4 mph N/A   Overcast
12:16 PM 57.2 °F 51.8 °F 82% 30.16 in 10.0 mi SSW 11.5 mph 17.3 mph N/A   Overcast
12:36 PM 55.4 °F 51.8 °F 88% 30.16 in 10.0 mi SSW 9.2 mph 16.1 mph N/A   Overcast
12:56 PM 57.2 °F 51.8 °F 82% 30.16 in 10.0 mi SW 10.4 mph 16.1 mph N/A   Overcast
1:16 PM 57.2 °F 51.8 °F 82% 30.16 in 10.0 mi SSW 8.1 mph - N/A   Overcast
1:36 PM 59.0 °F 51.8 °F 77% 30.16 in 10.0 mi SSW 12.7 mph 18.4 mph N/A   Overcast
1:56 PM 59.0 °F 51.8 °F 77% 30.16 in 10.0 mi SSW 11.5 mph 17.3 mph N/A   Overcast
2:16 PM 59.0 °F 51.8 °F 77% 30.17 in 10.0 mi SW 9.2 mph 16.1 mph N/A   Overcast
2:36 PM 60.8 °F 51.8 °F 72% 30.16 in 10.0 mi SW 10.4 mph - N/A   Mostly Cloudy
2:56 PM 60.8 °F 51.8 °F 72% 30.17 in 10.0 mi SSW 8.1 mph - N/A   Overcast
3:16 PM 60.8 °F 51.8 °F 72% 30.17 in 10.0 mi SW 9.2 mph - N/A   Overcast
3:36 PM 60.8 °F 51.8 °F 72% 30.17 in 10.0 mi SSW 8.1 mph 17.3 mph N/A   Overcast
3:56 PM 60.8 °F 53.6 °F 77% 30.16 in 10.0 mi SSW 10.4 mph - N/A   Mostly Cloudy
4:16 PM 62.6 °F 51.8 °F 68% 30.16 in 10.0 mi SW 6.9 mph - N/A   Overcast
4:36 PM 62.6 °F 51.8 °F 68% 30.16 in 10.0 mi SW 9.2 mph - N/A   Mostly Cloudy
4:56 PM 60.8 °F 51.8 °F 72% 30.16 in 10.0 mi SW 6.9 mph - N/A   Overcast
5:16 PM 60.8 °F 51.8 °F 72% 30.17 in 10.0 mi SW 6.9 mph - N/A   Overcast
5:36 PM 60.8 °F 51.8 °F 72% 30.17 in 10.0 mi SW 10.4 mph 16.1 mph N/A   Overcast
5:56 PM 60.8 °F 50.0 °F 68% 30.17 in 10.0 mi WSW 6.9 mph - N/A   Overcast
6:16 PM 60.8 °F 50.0 °F 68% 30.17 in 10.0 mi SW 6.9 mph - N/A   Overcast
6:36 PM 60.8 °F 50.0 °F 68% 30.17 in 10.0 mi SW 6.9 mph - N/A   Overcast
6:56 PM 60.8 °F 51.8 °F 72% 30.17 in 10.0 mi SW 9.2 mph 16.1 mph N/A   Overcast
7:16 PM 60.8 °F 51.8 °F 72% 30.17 in 10.0 mi SW 6.9 mph - N/A   Overcast
7:36 PM 60.8 °F 51.8 °F 72% 30.17 in 9.0 mi SW 8.1 mph 17.3 mph N/A   Overcast
7:56 PM 55.4 °F 53.6 °F 94% 30.17 in 6.0 mi SSW 6.9 mph - 0.03 in   Overcast
8:16 PM 57.2 °F 53.6 °F 88% 30.17 in 10.0 mi SW 6.9 mph - N/A   Overcast
8:36 PM 57.2 °F 53.6 °F 88% 30.17 in 5.0 mi SW 4.6 mph - 0.04 in   Overcast
8:56 PM 55.4 °F 53.6 °F 94% 30.17 in 8.0 mi SW 8.1 mph - 0.04 in   Overcast
9:16 PM 55.4 °F 53.6 °F 94% 30.17 in 9.0 mi SW 5.8 mph - 0.01 in   Overcast
9:36 PM 55.4 °F 51.8 °F 88% 30.17 in 10.0 mi SW 4.6 mph - 0.01 in   Overcast
9:56 PM 55.4 °F 53.6 °F 94% 30.17 in 10.0 mi SW 5.8 mph - 0.01 in   Overcast
10:16 PM 55.4 °F 51.8 °F 88% 30.17 in 10.0 mi SW 4.6 mph - N/A   Overcast
10:36 PM 55.4 °F 53.6 °F 94% 30.16 in 10.0 mi SW 5.8 mph - N/A   Overcast
10:56 PM 55.4 °F 51.8 °F 88% 30.17 in 10.0 mi SW 3.5 mph - N/A   Mostly Cloudy
11:16 PM 55.4 °F 51.8 °F 88% 30.17 in 10.0 mi SW 6.9 mph - N/A   Mostly Cloudy
11:36 PM 55.4 °F 51.8 °F 88% 30.17 in 10.0 mi SW 5.8 mph - N/A   Overcast
11:56 PM 53.6 °F 51.8 °F 94% 30.16 in 10.0 mi Calm Calm - N/A   Overcast